Skip Page Navigation
NASA JPL Caltech
NASA Logo - Jet Propulsion Laboratory + View the NASA Portal
+ Center for Near-Earth Object Studies
JPL Home Earth Solar System Stars & Galaxies Technology
JPL Solar System Dynamics
BODIES ORBITS EPHEMERIDES TOOLS PHYSICAL DATA DISCOVERY FAQ SITE MAP
JPL Small-Body Database Browser
Search: [ help ]  
8035 (1992 TB)
Classification: Apollo [NEO]          SPK-ID: 2008035
Ephemeris | Orbit Diagram | Orbital Elements | Mission Design | Physical Parameters | Discovery Circumstances | Close-Approach Data ]

[ show orbit diagram ]
Orbital Elements at Epoch 2459200.5 (2020-Dec-17.0) TDB
Reference: JPL 153 (heliocentric ecliptic J2000)
 Element Value Uncertainty (1-sigma)   Units 
e .4623734484868526 6.9791e-08  
a 1.341999474674412 2.9315e-09 au
q .7214945497016597 9.3597e-08 au
i 28.30637122163636 9.5601e-06 deg
node 185.6312489553616 6.3374e-06 deg
peri 6.059938327318061 9.2838e-06 deg
M 206.2638874472393 1.5053e-05 deg
tp 2459442.993632908869
(2021-Aug-16.49363291)
2.3742e-05 TDB
period 567.8412599201959
1.55
1.8606e-06
5.094e-09
d
yr
n .6339799965409245 2.0774e-09 deg/d
Q 1.962504399647165 4.287e-09 au
  Orbit Determination Parameters
   # obs. used (total)      934  
   data-arc span      10325 days (28.27 yr)  
   first obs. used      1992-10-02  
   last obs. used      2021-01-08  
   planetary ephem.      DE431  
   SB-pert. ephem.      SB431-N16  
   condition code      0  
   norm. resid. RMS      .5349  
   source      ORB  
   producer      Otto Matic  
   solution date      2021-Feb-24 19:08:33  

Additional Information
 Earth MOID = .27341 au 
 Jupiter MOID = 2.99221 au 
 T_jup = 4.670 
[ show covariance matrix ]

Ephemeris | Orbit Diagram | Orbital Elements | Mission Design | Physical Parameters | Discovery Circumstances | Close-Approach Data ]

Physical Parameter Table
Parameter Symbol Value Units Sigma Reference Notes
absolute magnitude H 17.1   n/a MPO319186  

8035 (1992 TB)          Discovered 1992-Oct-02 by Spacewatch at Kitt Peak
Reference: DISCOVERY.DBLast Updated: 2003-08-29

[ hide close-approach data ]
Close-Approach Data   ...sorted by Date/Time (TDB)
Date/Time (TDB) Time Uncertainty
(days_HH:MM)
Body Nominal Distance (au) Minimum Distance (au) Maximum Distance (au) V-relative (km/s) V-infinity (km/s) JD (TDB) Time Uncertainty (minutes) Semi-major axis (km) Semi-minor axis (km) range-LOV angle (deg) N-sigma BP Orbit Ref. Reference Modified
1908-Feb-13 15:12 < 00:01 Earth 0.356818623176793 0.356817413337296 0.356819833035336 21.6397788518482 21.6394337752658 2417985.133326572 0.416528691861997 147.100338340087 15.0050188380617 66.4640993420391 2872883.12244473 T 153 CATAB v2.0f-lin.ifort 2021-Feb-24 19:08:36 2021-Feb-24 19:08
1911-Apr-23 04:47 < 00:01 Earth 0.336474610944245 0.336473968423956 0.336475253471476 21.2385223502281 21.2381494955714 2419149.699489059 0.268945157503027 91.1363562107029 14.4621889175884 -71.4739582195357 2945081.82476808 T 153 CATAB v2.0f-lin.ifort 2021-Feb-24 19:08:36 2021-Feb-24 19:08
1922-Feb-09 16:16 < 00:01 Earth 0.371695418381381 0.371694606749926 0.371696230019913 21.7626032257834 21.7622738303367 2423095.177577100 0.26215509895223 95.8559149231542 14.8349479488898 66.5699866577994 2999157.59882092 T 153 CATAB v2.0f-lin.ifort 2021-Feb-24 19:08:36 2021-Feb-24 19:08
1923-Sep-22 21:51 < 00:01 Venus 0.0414107913447136 0.0414081450602022 0.0414134376353475 21.0998099393477 21.0973245041065 2423685.410477652 0.214462668095043 134.353343973208 13.8808954330085 10.8912662177177 94905.0335487346 T 153 CATAB v2.0f-lin.ifort 2021-Feb-24 19:08:36 2021-Feb-24 19:08
1925-Apr-17 22:27 < 00:01 Earth 0.321674558957417 0.32167383300176 0.321675284925526 21.3068316093988 21.3064428501529 2424258.435092324 0.333848773328029 114.622719297452 14.403830763597 -73.0184289299297 2860378.62975402 T 153 CATAB v2.0f-lin.ifort 2021-Feb-24 19:08:36 2021-Feb-24 19:08
1936-Jan-31 09:41 < 00:01 Earth 0.417837129353643 0.417835995575212 0.417838263140863 22.3054338172646 22.3051479282705 2428198.903730585 0.316887255300919 114.309329238826 15.6479836373319 61.3283933645429 3052184.85106059 T 153 CATAB v2.0f-lin.ifort 2021-Feb-24 19:08:36 2021-Feb-24 19:08
1939-Apr-08 12:59 < 00:01 Earth 0.295595624940915 0.295595081546488 0.295596168346667 21.4212462584613 21.4208254602485 2429362.040731678 0.303149311697249 110.513386604384 14.2169957563271 -77.8493546870918 2730663.38415384 T 153 CATAB v2.0f-lin.ifort 2021-Feb-24 19:08:36 2021-Feb-24 19:08
1950-Jan-21 12:01 < 00:01 Earth 0.468828857055538 0.468827686777025 0.46883002733994 23.2436162725329 23.2433717625424 2433303.000621837 0.275464075217213 104.202268719874 16.5483617260898 57.0473521259284 3129534.19220765 T 153 CATAB v2.0f-lin.ifort 2021-Feb-24 19:08:36 2021-Feb-24 19:08
1953-Mar-29 17:26 < 00:01 Earth 0.278708202746438 0.278707835174629 0.278708570324378 21.4307519498066 21.4303058523814 2434466.226582348 0.271370859457112 102.971123139206 14.0386189470424 -83.3660834148239 2650007.85068631 T 153 CATAB v2.0f-lin.ifort 2021-Feb-24 19:08:36 2021-Feb-24 19:08
1953-Mar-31 19:22 < 00:01 Venus 0.0893487563583754 0.0893465343878078 0.0893509783367035 21.4718319000244 21.4706999616517 2434468.306838146 0.180859250744794 118.445904642965 13.9729823625019 20.8511684144214 350026.614540773 T 153 CATAB v2.0f-lin.ifort 2021-Feb-24 19:08:36 2021-Feb-24 19:08
1956-May-10 17:12 < 00:01 Venus 0.131785531929694 0.131783583563397 0.131787480300814 22.0078180969088 22.0070693559147 2435604.216549438 0.162439964349594 105.148452654882 14.7254767698398 -22.7188713239893 529411.09436674 T 153 CATAB v2.0f-lin.ifort 2021-Feb-24 19:08:36 2021-Feb-24 19:08
1956-Jun-14 09:43 < 00:01 Earth 0.49325411794677 0.493253410403777 0.493254825493043 19.2761279866438 19.2758477499551 2435638.904629245 0.389634533091617 83.5447932497651 19.1337378326667 -68.6227899060453 2859476.6628918 T 153 CATAB v2.0f-lin.ifort 2021-Feb-24 19:08:36 2021-Feb-24 19:08
1967-Mar-18 19:22 < 00:01 Earth 0.273392433202595 0.273392156646516 0.273392709758705 21.4018854436189 21.4014300589014 2439568.307246919 0.11082821690949 43.7330286840909 13.717900646742 -88.050693741145 2660869.90523602 T 153 CATAB v2.0f-lin.ifort 2021-Feb-24 19:08:36 2021-Feb-24 19:08
1970-May-30 00:12 < 00:01 Earth 0.453644065583894 0.453643707947829 0.453644423220373 19.8050753813257 19.8047788136082 2440736.508603964 0.150274725563928 42.528582723016 14.65056860145 -75.2456135085777 3305035.24868655 T 153 CATAB v2.0f-lin.ifort 2021-Feb-24 19:08:36 2021-Feb-24 19:08
1981-Mar-08 01:06 < 00:01 Earth 0.284918803018497 0.28491846284196 0.284919143197124 21.3827897864175 21.3823524342123 2444671.545531889 0.178477599483711 70.4282992250254 14.0320099652816 82.0619072356229 2683949.56806541 T 153 CATAB v2.0f-lin.ifort 2021-Feb-24 19:08:36 2021-Feb-24 19:08
1984-May-15 14:43 < 00:01 Earth 0.412176254318156 0.412175641695355 0.412176866944307 20.4699143574361 20.4695985541004 2445836.113519957 0.267229118825504 73.3814303627964 14.5304884088342 -68.0624238117015 3309618.89104194 T 153 CATAB v2.0f-lin.ifort 2021-Feb-24 19:08:36 2021-Feb-24 19:08
1985-Nov-15 21:39 < 00:01 Venus 0.0539428920605593 0.0539409513193175 0.0539448328057413 21.1651281364527 21.1632260365115 2446385.402357488 0.157607227724534 99.526400340386 14.08166129301 -13.6391344851745 154985.665132684 T 153 CATAB v2.0f-lin.ifort 2021-Feb-24 19:08:36 2021-Feb-24 19:08
1995-Feb-27 19:15 < 00:01 Earth 0.305566076021303 0.305565654518176 0.305566497527209 21.410514189143 21.4101069174247 2449776.302250149 0.17228249093622 66.259330830844 14.293382854285 76.2206780407731 2758843.56802725 T 153 CATAB v2.0f-lin.ifort 2021-Feb-24 19:08:36 2021-Feb-24 19:08
1998-May-07 08:50 < 00:01 Earth 0.383629266689784 0.383628812004906 0.383629721376079 20.8392154371454 20.8388821467999 2450940.868333166 0.1769152241938 52.9242223804811 14.3940340631507 -69.8809827864149 3254969.53962442 T 153 CATAB v2.0f-lin.ifort 2021-Feb-24 19:08:36 2021-Feb-24 19:08
2009-Feb-20 22:55 < 00:01 Earth 0.32610423104979 0.326103810542841 0.326104651558241 21.4869124840305 21.4865322195586 2454883.454791402 0.140093024564583 52.6089131692992 14.5565232496977 72.6297245162318 2836262.57134929 T 153 CATAB v2.0f-lin.ifort 2021-Feb-24 19:08:36 2021-Feb-24 19:08
2012-Apr-29 23:09 < 00:01 Earth 0.360609958619347 0.36060951540376 0.360610401836123 21.0556893853215 21.055338464777 2456047.464526113 0.158427852563555 48.7853289658058 14.614377996305 -69.1324717741472 3071205.0987609 T 153 CATAB v2.0f-lin.ifort 2021-Feb-24 19:08:36 2021-Feb-24 19:08
2015-May-29 20:33 < 00:01 Venus 0.0782879184984843 0.0782866229437549 0.0782892140548826 21.3467290316375 21.3454295920885 2457172.355964846 0.105913015708378 67.1943561920564 14.2718395099879 -16.3442562291039 281316.894562829 T 153 CATAB v2.0f-lin.ifort 2021-Feb-24 19:08:36 2021-Feb-24 19:08
2023-Feb-15 02:53 < 00:01 Earth 0.350498686508347 0.350498180073933 0.350499192944853 21.6448117318112 21.6444605146949 2459990.620042300 0.161009902694563 58.5765842249981 14.8680845694003 68.8825054054719 2907452.97737002 T 153 CATAB v2.0f-lin.ifort 2021-Feb-24 19:08:36 2021-Feb-24 19:08
2026-Apr-24 07:54 < 00:01 Earth 0.340362871691836 0.340362417396224 0.340363325989113 21.2029284697463 21.2025592557886 2461154.828928823 0.167050929734695 53.9353136282555 14.5525134503926 -70.4705506947092 2953192.85302813 T 153 CATAB v2.0f-lin.ifort 2021-Feb-24 19:08:36 2021-Feb-24 19:08
2037-Feb-10 09:21 < 00:01 Earth 0.36836314221239 0.36836244804675 0.368363836382427 21.7906795381338 21.7903475911538 2465099.889335284 0.217209400838676 78.4949201336015 15.0903754056337 66.1453558187768 2937182.97633525 T 153 CATAB v2.0f-lin.ifort 2021-Feb-24 19:08:36 2021-Feb-24 19:08
